Krasna, Germany

5:40 PM CET on January 21, 2017 (GMT +0100)
Hof Plauen

Weather History for EDQM - June, 2013

Change the Weather History Date:

Tuesday, June 11, 2013

  Actual Average Record
Temperature  
Mean Temperature 54 °F -  
Max Temperature 63 °F 66 °F 82 °F (1997)
Min Temperature 44 °F 50 °F 41 °F (2005)
Degree Days  
Heating Degree Days 12    
Growing Degree Days 4 (Base 50)    
Moisture  
Dew Point 46 °F    
Average Humidity 73    
Maximum Humidity 99    
Minimum Humidity 35    
Precipitation  
Precipitation 0.00 in - - ()
Sea Level Pressure  
Sea Level Pressure 30.02 in    
Wind  
Wind Speed 4 mph ()    
Max Wind Speed 13 mph    
Max Gust Speed -    
Visibility 5.2 miles    
Events Fog , Rain    
Averages and records for this station are not official NWS values.
T = Trace of Precipitation, MM = Missing Value Source: Averaged Metar Reports

Daily Weather History Graph

Daily Weather History Graph

Search for Another Location

Airport or City:

Trip Planner

Search our weather history database for the weather conditions in past years. The results will help you decide how hot, cold, wet, or windy it might be!

Date:

Astronomy

Jun. 11, 2013 Rise Set
Actual Time 5:01 AM CEST 9:22 PM CEST
Civil Twilight 4:17 AM CEST 10:07 PM CEST
Nautical Twilight 3:11 AM CEST 11:13 PM CEST
Astronomical Twilight 1:44 AM CEST 12:39 AM CEST
Moon 7:41 AM CEST (6/11) 11:00 PM CEST (6/11)
Length of Visible Light 17h 50m
Length of Day
16h 21m
Waxing Crescent, 7% of the Moon is Illuminated
Jun 11
Waxing Crescent
Jun 16
First Quarter
Jun 23
Full
Jun 30
Last Quarter
Jul 8
New

Hourly Weather History & Observations

Time (CEST) Temp. Windchill Dew Point Humidity Pressure Visibility Wind Dir Wind Speed Gust Speed Precip Events Conditions
12:00 AM 51 °F - 50 °F 97% 29.94 in 2 mi WNW 6.7 mph - -   Mist
12:20 AM 50.0 °F - 46.4 °F 87% 29.95 in 1.0 mi WNW 4.6 mph - N/A   Partly Cloudy
12:50 AM 50.0 °F - 46.4 °F 87% 29.95 in 0.6 mi WNW 3.5 mph - N/A   Partly Cloudy
1:00 AM 50 °F - 49 °F 97% 29.95 in 2 mi WNW 4.5 mph - -   Mist
1:20 AM 50.0 °F - 48.2 °F 94% 29.95 in 2.2 mi NW 4.6 mph - N/A   Mostly Cloudy
1:50 AM 48.2 °F - 44.6 °F 87% 29.95 in 1.6 mi NW 4.6 mph - N/A   Partly Cloudy
2:00 AM 51 °F - 49 °F 92% 29.95 in 2 mi WNW 6.7 mph - -   Mist
2:20 AM 48.2 °F - 46.4 °F 93% 29.98 in - Variable 2.3 mph - N/A   Mist
2:50 AM 48.2 °F - 46.4 °F 93% 29.95 in 0.3 mi Calm Calm - N/A   Unknown
3:00 AM 48 °F - 48 °F 98% 29.97 in 1 mi WNW 2.2 mph - -   Mist
3:20 AM 48.2 °F - 46.4 °F 93% 29.95 in 0.7 mi WNW 4.6 mph - N/A   Partly Cloudy
3:50 AM 46.4 °F - 42.8 °F 87% 29.95 in 0.2 mi Variable 2.3 mph - N/A   Mist
4:00 AM 46 °F - 46 °F 99% 29.98 in 0 mi South 2.2 mph - - Fog Fog
4:20 AM 48.2 °F - 46.4 °F 93% 29.95 in 1.8 mi West 3.5 mph - N/A   Unknown
4:50 AM 46.4 °F - 44.6 °F 93% 29.98 in 0.2 mi Calm Calm - N/A   Partly Cloudy
5:20 AM 46.4 °F 45.2 °F 44.6 °F 93% 29.98 in 0.2 mi WNW 3.5 mph - N/A   Partly Cloudy
5:50 AM 46.4 °F - 44.6 °F 93% 29.98 in 0.2 mi Calm Calm - N/A   Mist
6:00 AM 45 °F - 45 °F 98% 30.00 in 1 mi West 2.2 mph - -   Mist
6:20 AM 46.4 °F - 44.6 °F 93% 29.98 in 0.9 mi South 1.2 mph - N/A   Mist
6:50 AM 51.8 °F - 48.2 °F 88% 29.98 in 6.2 mi Calm Calm - N/A Fog Patches of Fog
7:00 AM 49 °F - 48 °F 94% 29.99 in 1 mi NNW 2.2 mph - -   Mist
7:20 AM 53.6 °F - 48.2 °F 82% 30.01 in 6.2 mi Variable 2.3 mph - N/A Fog Patches of Fog
7:50 AM 53.6 °F - 48.2 °F 82% 30.01 in 6.2 mi NNW 4.6 mph - N/A Fog Patches of Fog
8:00 AM 53 °F - 48 °F 77% 29.99 in 4 mi NNW 4.5 mph - -   Mist
8:20 AM 55.4 °F - 48.2 °F 77% 30.01 in 6.2 mi NNW 5.8 mph - N/A Fog Patches of Fog
8:50 AM 57.2 °F - 46.4 °F 67% 30.01 in 6.2 mi NNW 3.5 mph - N/A   Partly Cloudy
9:00 AM 56 °F - 48 °F 67% 29.99 in 10 mi North 4.5 mph - -   Scattered Clouds
9:20 AM 59.0 °F - 48.2 °F 67% 30.01 in 6.2 mi Variable 3.5 mph - N/A   Partly Cloudy
10:00 AM 59 °F - 48 °F 59% 29.99 in 12 mi North 2.2 mph - -   Scattered Clouds
10:20 AM 60.8 °F - 48.2 °F 63% 30.04 in 6.2 mi Variable 3.5 mph - N/A   Partly Cloudy
10:50 AM 60.8 °F - 46.4 °F 59% 30.04 in 6.2 mi Variable 4.6 mph - N/A   Scattered Clouds
11:20 AM 62.6 °F - 44.6 °F 52% 30.04 in 6.2 mi Variable 4.6 mph - N/A   Scattered Clouds
11:50 AM 60.8 °F - 44.6 °F 55% 30.04 in - NNE 5.8 mph - N/A   Clear
12:00 PM 63 °F - 42 °F 35% 29.99 in 19 mi NNW 4.5 mph - -   Partly Cloudy
12:20 PM 62.6 °F - 44.6 °F 52% 30.04 in 6.2 mi WNW 5.8 mph - N/A   Scattered Clouds
12:50 PM 62.6 °F - 42.8 °F 48% 30.04 in 6.2 mi Variable 5.8 mph - N/A   Mostly Cloudy
1:00 PM 62 °F - 44 °F 40% 30.00 in 22 mi NW 6.7 mph - -   Mostly Cloudy
1:20 PM 59.0 °F - 48.2 °F 67% 30.04 in - West 12.7 mph - N/A   Clear
1:50 PM 59.0 °F - 48.2 °F 67% 30.04 in - West 11.5 mph - N/A   Clear
2:00 PM 59 °F - 51 °F 66% 30.02 in 19 mi West 8.9 mph - -   Mostly Cloudy
2:20 PM 59.0 °F - 48.2 °F 67% 30.06 in - West 10.4 mph - N/A   Clear
2:50 PM 59.0 °F - 48.2 °F 67% 30.06 in 6.2 mi West 10.4 mph - N/A Rain Light Rain
3:00 PM 58 °F - 50 °F 67% 30.02 in 19 mi West 8.9 mph - - Rain Light Rain
3:20 PM 62.6 °F - 42.8 °F 48% 30.06 in 6.2 mi Variable 2.3 mph - N/A   Scattered Clouds
3:50 PM 62.6 °F - 39.2 °F 42% 30.06 in - Variable 2.3 mph - N/A   Clear
4:00 PM 62 °F - 42 °F 36% 30.01 in 31 mi West 2.2 mph - - Rain Light Rain
4:20 PM 62.6 °F - 41.0 °F 45% 30.04 in - NNW 3.5 mph - N/A   Clear
4:50 PM 60.8 °F - 42.8 °F 52% 30.06 in - NW 5.8 mph - N/A   Clear
5:20 PM 59.0 °F - 44.6 °F 59% 30.06 in - WNW 9.2 mph - N/A   Clear
5:50 PM 59.0 °F - 46.4 °F 63% 30.06 in - West 9.2 mph - N/A   Clear
6:00 PM 59 °F - 48 °F 58% 30.02 in 31 mi WNW 4.5 mph - - Rain Light Rain
6:20 PM 60.8 °F - 46.4 °F 59% 30.04 in - Variable 2.3 mph - N/A   Clear
6:50 PM 59.0 °F - 46.4 °F 63% 30.06 in - WNW 4.6 mph - N/A   Clear
7:00 PM 59 °F - 48 °F 58% 30.02 in 28 mi West 4.5 mph - -   Partly Cloudy
7:20 PM 59.0 °F - 48.2 °F 67% 30.06 in - SSW 4.6 mph - N/A   Clear
7:50 PM 60.8 °F - 50.0 °F 68% 30.06 in - WSW 3.5 mph - N/A   Clear
8:00 PM 60 °F - 49 °F 58% 30.02 in 31 mi SW 4.5 mph - -   Partly Cloudy
8:20 PM 59.0 °F - 46.4 °F 63% 30.06 in 6.2 mi SW 4.6 mph - N/A   Partly Cloudy
8:50 PM 55.4 °F - 46.4 °F 72% 30.06 in 6.2 mi SW 5.8 mph - N/A   Unknown
9:00 PM 56 °F - 47 °F 64% 30.05 in 34 mi WSW 4.5 mph - -   Partly Cloudy
9:20 PM 53.6 °F - 48.2 °F 82% 30.06 in 6.2 mi SW 4.6 mph - N/A   Mostly Cloudy
9:50 PM 51.8 °F - 46.4 °F 82% 30.09 in 6.2 mi WSW 2.3 mph - N/A   Mostly Cloudy
10:00 PM 54 °F - 48 °F 74% 30.08 in 14 mi WSW 2.2 mph - -   Overcast
10:20 PM 50.0 °F - 46.4 °F 87% 30.09 in 6.2 mi SSW 3.5 mph - N/A   Unknown
10:50 PM 51.8 °F - 46.4 °F 82% 30.09 in 6.2 mi SSW 3.5 mph - N/A   Mostly Cloudy
11:20 PM 51.8 °F - 48.2 °F 88% 30.09 in 6.2 mi South 3.5 mph - N/A   Overcast
11:50 PM 51.8 °F - 46.4 °F 82% 30.09 in 6.2 mi Variable 2.3 mph - N/A   Overcast